Location: ????????
(60.4333°N, 46.4710°E)
Time: 04:38:33
(UTC+00:00)

Cosmos 405 - Pass Details

Date: 25 November 2020
Orbit: 449 x 462 km, 81.3° (Epoch: 19 January)

Event Time Altitude Azimuth Distance (km) Brightness Sun altitude
Rises 13:06:15 0° 162° (SSE) 2,470 6.8 -7.2°
Maximum altitude 13:11:26 25° 93° (E) 967 4.1 -7.7°
Drops below altitude 10° 13:14:21 10° 36° (NE) 1,605 5.1 -8.0°
Enters shadow 13:14:44 - 33° (NNE) 1,740 5.3 -8.1°
